User: anonymous
Location: Unspecified
(0.0000°N, 0.0000°E)
Time: 19:50:37
(UTC+02:00)
Language:

Resurs 1-3 - Orbit

View from above orbital plane
View from above orbital plane
View from above satellite
View from above satellite

Ground track
Ground track

The orbit data is extracted from the following two-line orbital elements,

1 23342U 94074A   14261.49216765  .00000543  00000-0  81792-4 0  2954
2 23342 098.1658 272.9994 0002049 102.3855 020.2959 14.78473708 69577
Epoch (UTC): 18 September 2014 11:48:43
Eccentricity: 0.0002049
inclination: 98.1658°
perigee height: 633 km
apogee height: 635 km
right ascension of ascending node: 272.9994°
argument of perigee: 102.3855°
revolutions per day: 14.78473708
mean anomaly at epoch: 20.2959°
orbit number at epoch: 6957

The dashed part of the orbit path shows where the satellite is in the earth's shadow,  

DLR